Location: Missoula
(46.8720°N, 113.9930°W)
Time: 05:51:02
(UTC-07:00)

ISS - Visible Passes

Search period start: 23 November 2017 00:00
Search period end: 03 December 2017 00:00
Orbit: 402 x 407 km, 51.6° (Epoch: 23 November)

Date Brightness Start Highest point End Pass type
(mag) Time Alt. Az. Time Alt. Az. Time Alt. Az.
27 Nov -2.1 18:49:21 10° SSW 18:51:17 23° S 18:51:17 23° S visible
28 Nov -1.8 17:57:54 10° S 18:00:01 16° SE 18:01:16 14° ESE visible
28 Nov -1.2 19:32:49 10° WSW 19:33:56 20° WSW 19:33:56 20° WSW visible
29 Nov -3.6 18:40:34 10° SW 18:43:46 55° SSE 18:43:50 55° SE visible
30 Nov -2.7 17:48:32 10° SSW 17:51:30 32° SE 17:53:39 16° E visible
30 Nov -1.6 19:24:39 10° W 19:26:18 26° W 19:26:18 26° W visible
01 Dec -3.9 18:32:10 10° WSW 18:35:27 79° NNW 18:36:04 55° NE visible
02 Dec -3.7 17:39:49 10° SW 17:43:04 66° SSE 17:45:47 14° ENE visible
02 Dec -1.8 19:16:35 10° W 19:18:26 27° WNW 19:18:26 27° WNW visible
